Weather History for Orr, MN

Change the Weather History Date:

Sunday, March 24, 2013

  Actual Average Record
Temperature  
Mean Temperature 24 °F -  
Max Temperature 30 °F 36 °F 62 °F (2007)
Min Temperature 15 °F 16 °F -9 °F (2001)
Degree Days  
Heating Degree Days 42    
Moisture  
Dew Point 15 °F    
Average Humidity 64    
Maximum Humidity 80    
Minimum Humidity 51    
Precipitation  
Precipitation 0.00 in - - ()
Sea Level Pressure  
Sea Level Pressure 30.07 in    
Wind  
Wind Speed 1 mph (NNE)    
Max Wind Speed 5 mph    
Max Gust Speed -    
Visibility 10 miles    
Events      
Averages and records for this station are not official NWS values.
T = Trace of Precipitation, MM = Missing Value Source: NWS Daily Summary

Daily Weather History Graph

Daily Weather History Graph

Search for Another Location

Airport:

Trip Planner

Search our weather history database for the weather conditions in past years. The results will help you decide how hot, cold, wet, or windy it might be!

Date:

Astronomy

Mar. 24, 2013 Rise Set
Actual Time 7:05 AM CDT 7:30 PM CDT
Civil Twilight 6:34 AM CDT 8:01 PM CDT
Nautical Twilight 5:57 AM CDT 8:38 PM CDT
Astronomical Twilight 5:19 AM CDT 9:16 PM CDT
Moon 4:50 PM CDT (3/24) 5:27 AM CDT (3/24)
Length of Visible Light 13h 27m
Length of Day
12h 24m
Waxing Gibbous, 92% of the Moon is Illuminated
Mar 24
Waxing Gibbous
Mar 27
Full
Apr 2
Last Quarter
Apr 10
New
Apr 18
First Quarter

Hourly Weather History & Observations

Time (CDT) Temp. Windchill Dew Point Humidity Pressure Visibility Wind Dir Wind Speed Gust Speed Precip Events Conditions
12:13 AM 24.8 °F - 15.8 °F 69% 30.10 in 10.0 mi Calm Calm - N/A   Overcast
12:33 AM 24.8 °F - 15.8 °F 69% 30.10 in 10.0 mi Calm Calm - N/A   Overcast
12:53 AM 24.8 °F - 15.8 °F 69% 30.10 in 10.0 mi Calm Calm - N/A   Overcast
1:13 AM 24.8 °F - 15.8 °F 69% 30.10 in 10.0 mi Calm Calm - N/A   Overcast
1:33 AM 24.8 °F - 15.8 °F 69% 30.09 in 10.0 mi Calm Calm - N/A   Overcast
1:53 AM 24.8 °F - 15.8 °F 69% 30.09 in 10.0 mi Calm Calm - N/A   Overcast
2:33 AM 24.8 °F - 15.8 °F 69% 30.09 in 10.0 mi Calm Calm - N/A   Overcast
2:53 AM 24.8 °F - 15.8 °F 69% 30.09 in 10.0 mi Calm Calm - N/A   Overcast
3:13 AM 23.0 °F - 15.8 °F 74% 30.08 in 10.0 mi Calm Calm - N/A   Overcast
3:33 AM 23.0 °F - 15.8 °F 74% 30.08 in 10.0 mi Calm Calm - N/A   Overcast
3:53 AM 23.0 °F - 15.8 °F 74% 30.07 in 10.0 mi Calm Calm - N/A   Overcast
4:13 AM 23.0 °F - 15.8 °F 74% 30.07 in 10.0 mi Calm Calm - N/A   Overcast
4:33 AM 21.2 °F 16.4 °F 15.8 °F 80% 30.07 in 10.0 mi WNW 3.5 mph - N/A   Overcast
4:53 AM 21.2 °F - 15.8 °F 80% 30.07 in 10.0 mi Calm Calm - N/A   Overcast
5:13 AM 21.2 °F - 15.8 °F 80% 30.07 in 10.0 mi Calm Calm - N/A   Overcast
5:33 AM 21.2 °F - 15.8 °F 80% 30.07 in 10.0 mi Calm Calm - N/A   Overcast
5:53 AM 23.0 °F - 15.8 °F 74% 30.07 in 10.0 mi Calm Calm - N/A   Overcast
6:13 AM 24.8 °F - 15.8 °F 69% 30.07 in 10.0 mi Calm Calm - N/A   Overcast
6:33 AM 24.8 °F - 15.8 °F 69% 30.07 in 10.0 mi Calm Calm - N/A   Overcast
6:53 AM 24.8 °F - 15.8 °F 69% 30.07 in 10.0 mi Calm Calm - N/A   Overcast
7:13 AM 24.8 °F 20.5 °F 15.8 °F 69% 30.08 in 10.0 mi ENE 3.5 mph - N/A   Overcast
7:33 AM 24.8 °F 20.5 °F 15.8 °F 69% 30.08 in 10.0 mi ENE 3.5 mph - N/A   Overcast
7:53 AM 24.8 °F 20.5 °F 15.8 °F 69% 30.09 in 10.0 mi ENE 3.5 mph - N/A   Overcast
8:13 AM 24.8 °F - 15.8 °F 69% 30.09 in 10.0 mi Calm Calm - N/A   Overcast
8:33 AM 24.8 °F - 15.8 °F 69% 30.08 in 10.0 mi Calm Calm - N/A   Overcast
8:53 AM 26.6 °F - 15.8 °F 64% 30.08 in 10.0 mi Calm Calm - N/A   Overcast
9:13 AM 26.6 °F - 15.8 °F 64% 30.08 in 10.0 mi Calm Calm - N/A   Overcast
9:33 AM 26.6 °F 21.2 °F 15.8 °F 64% 30.08 in 10.0 mi ENE 4.6 mph - N/A   Overcast
9:53 AM 26.6 °F 22.6 °F 15.8 °F 64% 30.08 in 10.0 mi East 3.5 mph - N/A   Overcast
10:13 AM 28.4 °F 24.6 °F 15.8 °F 59% 30.08 in 10.0 mi East 3.5 mph - N/A   Overcast
10:34 AM 28.4 °F 23.3 °F 15.8 °F 59% 30.08 in 10.0 mi NE 4.6 mph - N/A   Overcast
10:53 AM 28.4 °F 23.3 °F 15.8 °F 59% 30.08 in 10.0 mi NE 4.6 mph - N/A   Overcast
11:13 AM 30.2 °F 25.4 °F 15.8 °F 55% 30.08 in 10.0 mi ENE 4.6 mph - N/A   Mostly Cloudy
11:33 AM 30.2 °F 25.4 °F 15.8 °F 55% 30.07 in 10.0 mi ENE 4.6 mph - N/A   Overcast
11:53 AM 30.2 °F 26.7 °F 15.8 °F 55% 30.07 in 10.0 mi ENE 3.5 mph - N/A   Overcast
12:13 PM 30.2 °F 26.7 °F 15.8 °F 55% 30.07 in 10.0 mi NNE 3.5 mph - N/A   Overcast
12:33 PM 30.2 °F 26.7 °F 14.0 °F 51% 30.07 in 10.0 mi North 3.5 mph - N/A   Overcast
12:53 PM 30.2 °F 25.4 °F 14.0 °F 51% 30.07 in 10.0 mi NNE 4.6 mph - N/A   Overcast
1:13 PM 30.2 °F 25.4 °F 14.0 °F 51% 30.06 in 10.0 mi North 4.6 mph - N/A   Overcast
1:33 PM 30.2 °F 26.7 °F 14.0 °F 51% 30.06 in 10.0 mi NNE 3.5 mph - N/A   Overcast
1:54 PM 30.2 °F 25.4 °F 14.0 °F 51% 30.05 in 10.0 mi NNE 4.6 mph - N/A   Overcast
2:13 PM 30.2 °F 25.4 °F 15.8 °F 55% 30.05 in 10.0 mi NNE 4.6 mph - N/A   Overcast
2:33 PM 28.4 °F 23.3 °F 15.8 °F 59% 30.05 in 10.0 mi North 4.6 mph - N/A   Overcast
2:53 PM 28.4 °F 24.6 °F 15.8 °F 59% 30.04 in 10.0 mi ENE 3.5 mph - N/A   Overcast
3:13 PM 28.4 °F 23.3 °F 15.8 °F 59% 30.04 in 10.0 mi North 4.6 mph - N/A   Overcast
3:33 PM 28.4 °F - 15.8 °F 59% 30.04 in 10.0 mi Calm Calm - N/A   Overcast
3:53 PM 28.4 °F 24.6 °F 15.8 °F 59% 30.04 in 10.0 mi NNE 3.5 mph - N/A   Overcast
4:13 PM 28.4 °F 24.6 °F 15.8 °F 59% 30.03 in 10.0 mi NNW 3.5 mph - N/A   Overcast
4:33 PM 30.2 °F 26.7 °F 15.8 °F 55% 30.03 in 10.0 mi NW 3.5 mph - N/A   Overcast
4:53 PM 28.4 °F 23.3 °F 15.8 °F 59% 30.04 in 10.0 mi North 4.6 mph - N/A   Overcast
5:13 PM 28.4 °F - 15.8 °F 59% 30.04 in 10.0 mi Calm Calm - N/A   Overcast
5:33 PM 28.4 °F 23.3 °F 15.8 °F 59% 30.04 in 10.0 mi NNW 4.6 mph - N/A   Overcast
5:53 PM 28.4 °F 24.6 °F 15.8 °F 59% 30.04 in 10.0 mi NNE 3.5 mph - N/A   Overcast
6:13 PM 28.4 °F 24.6 °F 14.0 °F 55% 30.05 in 10.0 mi North 3.5 mph - N/A   Overcast
6:33 PM 28.4 °F 24.6 °F 14.0 °F 55% 30.05 in 10.0 mi NNE 3.5 mph - N/A   Overcast
7:13 PM 26.6 °F - 14.0 °F 59% 30.05 in 10.0 mi Calm Calm - N/A   Overcast
7:33 PM 26.6 °F - 14.0 °F 59% 30.06 in 10.0 mi Calm Calm - N/A   Overcast
7:53 PM 26.6 °F - 14.0 °F 59% 30.06 in 10.0 mi Calm Calm - N/A   Overcast
8:13 PM 26.6 °F 22.6 °F 14.0 °F 59% 30.06 in 10.0 mi NW 3.5 mph - N/A   Overcast
8:33 PM 26.6 °F - 12.2 °F 55% 30.07 in 10.0 mi Calm Calm - N/A   Mostly Cloudy
8:53 PM 24.8 °F - 12.2 °F 59% 30.07 in 10.0 mi Calm Calm - N/A   Scattered Clouds
9:13 PM 24.8 °F - 12.2 °F 59% 30.07 in 10.0 mi Calm Calm - N/A   Clear
9:33 PM 23.0 °F 18.4 °F 12.2 °F 63% 30.07 in 10.0 mi NW 3.5 mph - N/A   Scattered Clouds
9:53 PM 23.0 °F 18.4 °F 12.2 °F 63% 30.08 in 10.0 mi NW 3.5 mph - N/A   Mostly Cloudy
10:13 PM 23.0 °F 18.4 °F 12.2 °F 63% 30.08 in 10.0 mi NW 3.5 mph - N/A   Overcast
10:33 PM 21.2 °F 16.4 °F 12.2 °F 68% 30.07 in 10.0 mi NW 3.5 mph - N/A   Mostly Cloudy
10:53 PM 19.4 °F 14.3 °F 10.4 °F 68% 30.08 in 10.0 mi NW 3.5 mph - N/A   Clear
11:13 PM 19.4 °F 14.3 °F 10.4 °F 68% 30.08 in 10.0 mi NW 3.5 mph - N/A   Clear
11:33 PM 17.6 °F - 10.4 °F 73% 30.08 in 10.0 mi Calm Calm - N/A   Clear
11:53 PM 15.8 °F - 10.4 °F 79% 30.08 in 10.0 mi Calm Calm - N/A   Clear